Home > Weather > Pavlograd > Past weeks

Flag for Ukraine Weather for the Past 2 Weeks in Pavlograd, Ukraine

Now
43 °F

Sprinkles. Fog.


Feels Like: 38 °F
Forecast: 40 / 53 °F
Wind: 8 mph from East

Location: Zaporizhzhia / Mokraya

Current Time: Feb 14, 2016 at 6:05:54 AM

Latest Report: Feb 14, 2016 at 5:00 AM


Visibility: 2 mi

Pressure: 29.65 "Hg

Humidity: 100%

Dew point: 43 °F

Location of PavlogradLocation

Historic Weather in Pavlograd — Graph

°F

Pavlograd Temperature Yesterday

Maximum temperature yesterday: 41 °F (at 9:30 PM)
Minimum temperature yesterday: 32 °F (at 5:30 AM)
Average temperature yesterday: 37 °F

High & Low Weather Summary for the Past Weeks

 TemperatureHumidityPressure
High45 °F (Feb 3, 2:30 PM)100% (Jan 30, 5:00 AM)30.45 "Hg (Jan 30, 5:00 AM)
Low21 °F (Feb 7, 5:00 AM)42% (Feb 8, 2:30 PM)29.65 "Hg (Feb 14, 5:00 AM)
Average35 °F87%30.07 "Hg
* Reported Jan 30 5:00 AM — Feb 14 5:00 AM, Pavlograd, Weather by CustomWeather, © 2016

Note: Actual official high and low records may vary slightly from our data, if they occured in-between our weather recording intervals... More about our weather records

Advertising

Pavlograd Weather History for the Previous 24 Hours

 ConditionsComfort  
Time TempWeatherWind HumidityBarometerVisibility
5:00 AM
Sun, Feb 14
43 °FSprinkles. Fog.8 mph100%29.65 "Hg2 mi
4:00 AM43 °FFog.3 mph100%29.68 "Hg1 mi
3:00 AM43 °FQuite cool.6 mph100%29.68 "Hg1 mi
2:00 AM43 °FFog.6 mph100%29.71 "Hg3 mi
1:00 AM43 °FRain showers. Fog.8 mph100%29.71 "Hg1 mi
12:00 AM43 °FSprinkles. Fog.8 mph93%29.74 "Hg2 mi
11:00 PM
Sat, Feb 13
41 °FQuite cool.6 mph100%29.74 "Hg1 mi
10:30 PM41 °FSprinkles. Fog.8 mph93%29.74 "Hg1 mi
10:00 PM39 °FSprinkles. Passing clouds.10 mph100%29.77 "HgN/A
9:30 PM41 °FSprinkles. Fog.10 mph93%29.77 "Hg2 mi
9:00 PM39 °FSprinkles. Fog.6 mph100%29.77 "Hg2 mi
8:30 PM39 °FSprinkles. Fog.10 mph100%29.80 "Hg2 mi
8:00 PM39 °FSprinkles. Passing clouds.10 mph93%29.80 "Hg3 mi
7:30 PM39 °FSprinkles. Passing clouds.10 mph93%29.80 "Hg3 mi
7:00 PM39 °FSprinkles. Passing clouds.10 mph93%29.83 "HgN/A
6:30 PM37 °FSprinkles. Passing clouds.10 mph93%29.83 "Hg2 mi
6:00 PM37 °FPassing clouds.10 mph93%29.86 "HgN/A
5:30 PM37 °FPassing clouds.8 mph87%29.86 "HgN/A
5:00 PM39 °FPassing clouds.10 mph87%29.86 "HgN/A
4:30 PM39 °FPartly sunny.13 mph87%29.86 "HgN/A
4:00 PM39 °FPartly sunny.10 mph81%29.89 "HgN/A
3:30 PM39 °FPartly sunny.10 mph87%29.89 "HgN/A
3:00 PM39 °FPartly sunny.10 mph87%29.89 "HgN/A
2:30 PM39 °FPartly sunny.8 mph87%29.92 "HgN/A
2:00 PM39 °FPartly sunny.10 mph87%29.92 "HgN/A
1:30 PM39 °FPartly sunny.8 mph87%29.95 "HgN/A
1:00 PM39 °FPartly sunny.8 mph87%29.95 "HgN/A
12:30 PM39 °FPartly sunny.8 mph81%29.95 "HgN/A
12:00 PM39 °FPartly sunny.8 mph81%29.98 "HgN/A
11:30 AM39 °FPartly sunny.8 mph81%29.98 "HgN/A
11:00 AM39 °FPartly sunny.6 mph81%29.98 "HgN/A
10:30 AM39 °FPartly sunny.6 mph93%30.01 "HgN/A
10:00 AM39 °FPartly sunny.6 mph93%30.01 "HgN/A
9:30 AM37 °FPartly sunny.8 mph93%30.01 "HgN/A
9:00 AM37 °FPartly sunny.8 mph93%30.01 "HgN/A
8:30 AM36 °FPartly sunny.3 mph93%30.01 "HgN/A
8:00 AM34 °FPartly sunny.1 mph93%30.01 "HgN/A
7:30 AM34 °FPartly sunny.3 mph93%30.01 "HgN/A
7:00 AM32 °FPartly sunny.No wind100%30.01 "HgN/A
6:30 AM34 °FPassing clouds.1 mph93%30.01 "HgN/A
6:00 AM34 °FFog.1 mph93%30.01 "Hg2 mi
Weather by CustomWeather, © 2016

See weather overviewHow to use our weather pages